| time (UTC) | temp C | wind direction | speed KPH | gust KPH | rain 1hr cm | rain 24hr cm | rain mn cm | humidity % | barometer mb |
| 20260505040030 | 10 | 264 | 0.0 | 0.0 | 0.00 | 0.00 | 0.00 | 83 | 1013.1 |
| 20260505034529 | 11 | 264 | 0.0 | 1.6 | 0.00 | 0.00 | 0.00 | 81 | 1013.1 |
| 20260505031534 | 11 | 257 | 0.0 | 1.6 | 0.00 | 0.00 | 0.00 | 79 | 1013.2 |
| 20260505030028 | 12 | 268 | 0.0 | 1.6 | 0.00 | 0.00 | 0.00 | 78 | 1013.2 |
| 20260505024528 | 12 | 286 | 0.0 | 3.2 | 0.00 | 0.00 | 0.00 | 76 | 1013.3 |
| 20260505021530 | 13 | 287 | 1.6 | 6.4 | 0.00 | 0.00 | 0.00 | 71 | 1013.1 |
| 20260505020043 | 14 | 292 | 1.6 | 4.8 | 0.00 | 0.00 | 0.00 | 69 | 1012.9 |
| 20260505014530 | 14 | 291 | 1.6 | 6.4 | 0.00 | 0.00 | 0.00 | 67 | 1012.7 |
| 20260505011533 | 15 | 288 | 0.0 | 3.2 | 0.00 | 0.00 | 0.00 | 65 | 1012.4 |
| 20260505010042 | 16 | 283 | 0.0 | 3.2 | 0.00 | 0.00 | 0.00 | 64 | 1012.3 |
| 20260505004530 | 16 | 296 | 1.6 | 3.2 | 0.00 | 0.00 | 0.00 | 61 | 1012.1 |
| 20260505001524 | 17 | 292 | 0.0 | 1.6 | 0.00 | 0.00 | 0.00 | 60 | 1011.8 |
| 20260505000023 | 18 | 270 | 0.0 | 3.2 | 0.00 | 0.00 | 0.00 | 56 | 1011.8 |
| 20260504234522 | 20 | 283 | 0.0 | 1.6 | 0.00 | 0.00 | 0.00 | 52 | 1011.7 |
| 20260504231520 | 22 | 239 | 0.0 | 3.2 | 0.00 | 0.00 | 0.00 | 41 | 1011.6 |
| 20260504230020 | 22 | 244 | 0.0 | 11.3 | 0.00 | 0.00 | 0.00 | 37 | 1011.6 |
| 20260504224525 | 23 | 257 | 0.0 | 12.9 | 0.00 | 0.00 | 0.00 | 35 | 1011.5 |
| 20260504221519 | 23 | 264 | 4.8 | 11.3 | 0.00 | 0.00 | 0.00 | 36 | 1011.6 |
| 20260504220019 | 24 | 212 | 0.0 | 16.1 | 0.00 | 0.00 | 0.00 | 37 | 1011.4 |
| 20260504214534 | 25 | 271 | 3.2 | 14.5 | 0.00 | 0.00 | 0.00 | 36 | 1011.5 |
| 20260504211522 | 25 | 84 | 4.8 | 20.9 | 0.00 | 0.00 | 0.00 | 35 | 1011.4 |
| 20260504210022 | 25 | 81 | 6.4 | 20.9 | 0.00 | 0.00 | 0.00 | 37 | 1011.3 |
| 20260504204519 | 25 | 70 | 1.6 | 11.3 | 0.00 | 0.00 | 0.00 | 39 | 1011.4 |
| 20260504201514 | 25 | 84 | 4.8 | 11.3 | 0.00 | 0.00 | 0.00 | 37 | 1011.7 |
| 20260504200017 | 26 | 119 | 1.6 | 9.7 | 0.00 | 0.00 | 0.00 | 35 | 1012.0 |
| 20260504194512 | 25 | 184 | 1.6 | 9.7 | 0.00 | 0.00 | 0.00 | 36 | 1012.1 |
| 20260504191506 | 25 | 124 | 1.6 | 9.7 | 0.00 | 0.00 | 0.00 | 38 | 1012.6 |
| 20260504190006 | 25 | 278 | 0.0 | 8.0 | 0.00 | 0.00 | 0.00 | 37 | 1012.8 |
| 20260504184503 | 25 | 225 | 1.6 | 11.3 | 0.00 | 0.00 | 0.00 | 41 | 1012.9 |
| 20260504181603 | 24 | 124 | 0.0 | 12.9 | 0.00 | 0.00 | 0.00 | 36 | 1013.3 |
| 20260504180058 | 24 | 230 | 4.8 | 11.3 | 0.00 | 0.00 | 0.00 | 34 | 1013.5 |
| 20260504174557 | 23 | 235 | 0.0 | 8.0 | 0.00 | 0.00 | 0.00 | 36 | 1013.7 |
| 20260504171556 | 22 | 134 | 1.6 | 14.5 | 0.00 | 0.00 | 0.00 | 42 | 1013.9 |
| 20260504120129 | 6 | 305 | 0.0 | 1.6 | 0.00 | 0.00 | 0.00 | 90 | 1016.3 |
| 20260504081530 | 3 | 292 | 0.0 | 0.0 | 0.00 | 0.00 | 0.00 | 94 | 1015.7 |
| 20260504080128 | 3 | 286 | 0.0 | 3.2 | 0.00 | 0.00 | 0.00 | 93 | 1015.5 |
| 20260504070125 | 4 | 269 | 0.0 | 0.0 | 0.00 | 0.00 | 0.00 | 91 | 1015.5 |
| 20260504060121 | 5 | 278 | 0.0 | 0.0 | 0.00 | 0.00 | 0.00 | 89 | 1015.8 |
| 20260504050120 | 6 | 280 | 1.6 | 4.8 | 0.00 | 0.00 | 0.00 | 85 | 1016.0 |
| 20260504044520 | 6 | 302 | 1.6 | 6.4 | 0.00 | 0.00 | 0.00 | 85 | 1015.8 |
| 20260504043020 | 7 | 261 | 0.0 | 4.8 | 0.00 | 0.00 | 0.00 | 84 | 1015.7 |
| 20260504041519 | 7 | 246 | 0.0 | 0.0 | 0.00 | 0.00 | 0.00 | 85 | 1015.7 |